Location: Fredericksburg
(30.2750°N, 98.8720°W)
Time: 23:45:02
(UTC-06:00)

PCSat - Pass Details

Date: 31 May 2018
Orbit: 785 x 794 km, 67.1° (Epoch: 18 November)

Event Time Altitude Azimuth Distance (km) Brightness Sun altitude
Exits shadow 05:35:50 - 273° (W) 2,444 11.6 -11.8°
Reaches altitude 10° 05:36:24 10° 279° (W) 2,339 11.6 -11.7°
Maximum altitude 05:38:56 13° 307° (NW) 2,113 11.6 -11.2°
Drops below altitude 10° 05:41:29 10° 336° (NNW) 2,344 12.1 -10.8°
Sets 05:45:17 0° 3° (N) 3,277 13.3 -10.1°
